Probability
2 3 4 5 4 2 0 0 0 1 2 2 1 2 3 3 3 1 0 0 0 0 0 0 0 0 1 3 4 4 3 3 3 2 1 1 2 3 3 2 1 1 2
3 3 3 4 4 2 1 0 0 0 1 1 0 1 3 3 2 2 1 0 0 0 0 0 0 0 0 2 3 3 3 4 3 2 1 0 1 3 3 3 1 1 2
3 3 2 3 3 3 2 1 0 0 0 0 0 1 2 2 1 1 2 1 0 0 0 1 1 0 0 1 2 3 3 4 3 2 1 0 1 2 3 3 3 3 3
3 3 2 3 3 3 2 1 0 0 0 0 0 0 1 1 0 1 2 2 0 0 0 1 1 0 0 0 1 2 2 2 1 1 0 0 0 2 3 3 3 3 3
3 3 3 3 3 3 2 1 0 0 1 1 1 1 0 1 1 2 2 1 0 0 0 1 1 0 0 0 0 0 0 0 0 0 0 0 1 2 3 3 3 3 3
3 3 3 3 2 1 1 0 0 0 1 2 2 1 1 2 2 2 1 0 0 0 0 0 0 0 0 0 0 0 0 0 0 0 0 0 1 2 3 3 3 3 3
2 2 2 2 1 0 0 0 0 0 1 1 2 3 2 2 2 1 0 0 0 0 0 0 0 0 0 0 0 0 0 0 0 0 0 0 0 1 3 3 3 3 3
1 2 2 1 0 0 0 0 0 0 0 1 2 3 2 1 1 1 0 1 1 0 0 0 0 0 0 0 0 0 0 0 0 0 0 1 1 1 3 3 3 3 3
1 2 3 2 1 1 0 0 0 0 0 1 2 1 1 1 2 1 1 1 1 0 0 0 0 1 1 0 0 0 0 0 0 1 1 2 2 3 3 3 3 3 3
1 2 4 3 2 2 1 0 0 0 0 1 1 1 2 2 2 1 0 1 1 0 0 0 0 2 3 2 0 0 0 0 0 1 2 3 3 3 3 3 3 3 3
0 1 2 3 3 2 1 0 0 0 0 0 0 1 1 1 1 0 0 1 1 0 0 0 1 2 3 2 1 0 0 0 0 1 2 3 3 3 3 3 3 3 3
0 0 1 1 2 1 0 0 1 1 0 0 0 0 0 0 0 0 1 2 1 0 0 0 2 2 2 1 0 0 0 0 0 1 2 3 3 3 3 3 2 3 3
0 0 0 0 0 0 0 1 1 1 0 0 0 0 0 0 0 1 2 2 1 0 0 0 1 1 0 0 0 0 0 0 0 0 1 3 3 3 2 1 1 1 2
0 0 0 0 0 0 0 1 1 1 0 0 0 0 0 0 0 1 2 2 1 0 0 0 0 0 0 0 0 0 0 0 0 0 1 2 2 2 1 0 0 1 2
0 1 1 0 0 0 0 0 0 0 0 0 0 0 0 0 0 0 1 2 2 1 0 0 0 0 0 0 0 0 0 0 0 0 0 1 1 1 0 0 0 0 1
2 3 2 1 1 0 0 0 0 0 0 0 0 0 0 0 0 0 1 2 3 1 0 0 0 0 0 0 0 0 0 0 0 0 0 0 0 0 1 1 0 0 0
5 5 4 3 2 2 2 1 1 0 0 0 0 0 0 0 0 0 1 2 3 2 0 0 0 0 0 0 0 0 0 0 0 0 0 0 0 0 2 2 2 1 1
4 4 4 3 4 5 6 5 2 1 1 1 0 0 0 0 0 0 0 1 2 1 0 0 0 0 0 0 0 0 0 0 0 0 0 0 0 0 2 4 4 3 3
2 3 4 4 5 7 7 6 3 1 1 1 1 0 0 0 0 0 0 0 0 0 0 0 0 0 0 0 0 0 0 1 1 1 0 1 1 1 2 4 5 5 5
3 4 4 5 6 7 7 5 3 2 2 2 2 1 0 1 1 1 0 0 0 0 0 0 0 0 0 0 0 0 0 1 2 2 2 2 2 3 3 4 6 7 7
2 3 3 4 6 7 6 4 3 3 3 3 2 1 1 1 2 1 1 1 0 0 0 0 0 0 0 0 0 0 0 1 2 3 3 4 3 3 3 4 6 8 9
1 1 1 2 4 4 4 3 3 3 3 2 2 1 1 1 1 1 2 1 0 0 0 0 0 0 1 1 1 2 1 0 1 3 5 6 5 4 3 3 5 6 7
1 1 1 2 2 2 2 3 2 3 2 2 1 1 0 0 0 1 1 1 0 0 0 0 0 1 2 3 3 3 2 1 1 4 6 6 6 5 3 2 3 4 4
2 3 3 4 3 2 1 2 2 2 2 1 1 1 0 0 0 0 0 0 0 0 0 0 1 3 4 4 3 3 3 3 3 4 5 5 4 4 3 2 2 2 2
2 3 5 6 5 3 2 1 1 2 2 2 1 1 0 0 0 0 0 0 0 0 1 1 2 3 3 3 3 3 4 5 4 4 4 3 3 3 3 4 4 4 4
1 2 4 5 5 4 3 2 1 1 2 2 2 1 0 0 0 0 0 0 0 1 2 2 3 3 2 2 2 2 4 5 6 5 4 3 3 3 4 5 6 6 6
Wind_Speed
5 7 10 7 8 8 8 8 8 8 8 9 9 9 9 10 9 9 9 9 9 8 9 9 9 8 9 9 9 9 8 8 8 8 8 7 7 7 7 7 6 6 8
6 8 10 7 7 8 8 8 8 8 8 9 10 9 9 9 9 8 9 8 8 8 8 8 8 8 8 8 9 9 8 8 7 7 7 8 8 7 6 6 2 4 7
6 8 9 8 7 7 8 8 8 8 9 10 10 9 9 9 9 9 9 8 8 8 8 7 8 7 7 8 8 8 8 7 7 6 7 6 8 8 6 6 5 5 6
7 7 8 9 7 8 8 8 7 8 9 9 10 9 9 9 8 8 9 8 8 8 8 7 7 7 7 8 8 8 7 7 6 7 6 3 5 9 7 6 5 6 6
8 7 9 8 8 8 8 8 8 8 9 9 9 9 9 9 8 8 8 8 7 7 7 7 7 7 7 7 7 7 7 6 6 8 3 3 4 8 6 6 6 6 6
8 7 10 7 7 7 7 7 8 8 9 9 9 9 8 8 8 7 7 7 7 6 6 6 7 6 6 6 6 6 5 6 8 4 3 4 5 7 6 6 6 6 6
7 7 10 7 7 7 7 7 7 8 8 8 9 9 8 7 7 7 6 6 6 5 5 5 5 5 5 4 5 5 5 5 5 2 3 3 5 7 6 6 6 6 5
7 7 9 9 7 7 6 7 7 7 7 8 8 8 8 7 7 6 6 6 5 5 5 4 4 4 4 3 3 4 4 6 5 3 3 3 6 6 6 6 5 5 5
7 7 7 9 8 8 7 7 7 7 7 8 7 7 7 7 7 6 6 5 5 4 4 4 4 3 3 3 3 3 3 5 5 2 3 4 7 6 6 6 5 5 5
6 6 6 7 7 7 8 9 7 7 7 7 7 7 6 7 7 7 7 5 4 4 4 3 3 3 3 3 4 4 5 8 4 3 3 6 7 6 6 5 5 5 5
6 6 5 6 6 5 6 8 8 8 7 7 7 7 6 5 6 6 6 5 4 3 3 2 2 3 5 6 6 6 7 3 2 1 2 7 6 6 6 5 5 5 5
6 6 5 5 5 5 4 5 4 4 5 4 4 4 4 3 2 3 7 5 4 3 4 3 4 6 8 5 8 9 4 3 2 2 5 7 5 6 6 5 5 5 5
6 5 5 5 4 4 3 3 2 2 3 3 4 3 3 3 3 3 3 4 4 5 3 5 6 4 2 1 2 3 2 2 1 1 6 6 5 5 6 5 6 6 6
5 5 5 5 4 3 2 2 2 2 2 3 4 2 3 2 1 1 1 2 2 2 1 1 1 1 1 1 2 2 3 2 1 1 5 7 5 5 5 6 6 6 6
5 4 4 4 4 3 2 0 2 1 1 3 3 2 1 2 1 1 1 0 1 1 2 2 1 1 1 2 2 2 2 1 2 2 4 7 6 5 5 6 5 6 6
5 4 4 4 5 3 2 1 0 1 2 2 2 2 1 1 1 1 2 1 1 1 0 0 0 1 1 1 1 1 1 1 2 2 3 6 8 6 6 6 5 5 5
5 5 5 5 5 3 3 2 1 1 2 1 2 2 1 1 1 1 1 1 1 1 1 1 1 1 2 1 1 1 2 2 2 2 2 2 5 8 7 6 5 5 5
5 5 5 4 5 4 3 1 1 0 1 1 1 1 1 0 1 1 1 0 0 1 1 1 2 1 1 1 1 1 1 1 2 3 3 3 2 3 7 8 6 6 6
5 5 5 4 4 4 4 2 2 1 1 1 0 1 1 1 1 2 0 0 2 1 1 2 1 1 1 1 1 1 1 1 2 2 2 2 2 2 2 7 8 6 6
5 5 5 5 4 3 3 3 2 2 1 1 0 0 1 1 1 2 1 0 2 1 1 1 1 1 1 1 2 1 1 1 1 1 2 2 2 3 2 2 4 6 8
6 5 5 4 4 3 2 2 2 2 2 1 1 1 1 1 1 2 1 1 2 1 2 2 2 2 1 1 1 1 2 2 1 1 2 2 2 2 2 2 2 2 4
6 6 6 5 5 4 3 1 1 1 1 1 0 1 1 2 2 2 2 2 2 1 2 2 2 2 1 1 2 2 2 3 3 2 2 3 2 2 2 2 1 2 2
7 7 5 5 5 4 3 3 2 2 2 2 1 1 1 1 2 1 1 2 2 3 1 2 3 3 2 2 2 3 2 1 1 2 2 1 1 1 2 1 2 2 2
7 7 7 6 5 4 4 3 3 2 1 1 1 1 1 0 1 1 1 2 2 2 2 3 2 2 3 3 2 2 3 2 2 1 2 2 2 2 1 2 1 2 2
7 7 7 6 5 5 4 3 3 3 2 1 1 1 1 1 1 1 1 1 2 2 1 2 2 3 3 3 2 2 2 2 4 3 1 2 2 1 1 2 2 1 1
7 7 7 7 6 5 5 4 4 3 2 1 1 1 2 2 1 1 1 2 2 2 2 2 3 3 3 3 3 3 3 2 3 3 3 3 2 1 1 1 2 1 1
Wind_Direction
112 107 113 129 132 134 133 134 133 137 138 135 133 130 129 129 129 129 132 132 132 130 128 127 127 130 131 130 128 127 126 129 131 131 130 131 137 142 147 151 170 145 126
112 112 121 128 130 131 131 131 134 134 136 135 133 132 131 130 129 130 130 130 129 129 127 126 127 129 132 133 132 134 136 136 135 138 146 150 146 147 148 156 163 108 130
111 116 130 126 127 126 129 128 131 133 136 134 133 133 131 129 129 128 129 130 129 127 129 132 129 129 132 139 140 141 142 143 144 156 188 171 142 144 146 146 131 132 136
110 114 115 121 122 120 121 121 124 128 132 132 133 131 128 126 125 126 128 128 128 128 130 132 128 125 130 137 141 141 143 147 159 194 197 138 134 131 147 146 142 144 143
111 114 111 124 121 119 119 118 120 124 130 134 133 130 128 127 129 130 131 130 129 131 134 132 128 126 130 137 140 143 149 158 185 219 147 143 133 131 150 152 151 150 146
116 117 111 122 120 119 119 119 119 122 127 132 134 134 133 132 131 131 129 135 137 137 136 135 134 135 135 136 144 151 163 179 214 177 147 168 138 138 156 159 155 152 147
113 115 117 120 120 120 121 124 128 129 130 132 134 137 134 134 132 130 132 136 140 144 145 143 142 142 141 146 154 164 177 210 236 147 160 147 118 140 161 164 160 160 157
114 119 122 130 128 126 126 127 126 128 133 137 138 139 139 139 139 140 145 147 152 152 150 149 152 152 145 151 159 166 188 243 207 176 154 124 115 149 165 168 167 168 167
110 112 120 130 134 141 136 129 127 124 124 129 131 132 137 141 144 147 149 152 153 151 154 163 170 169 164 169 172 177 205 255 252 161 153 129 134 164 173 175 177 177 175
108 109 109 122 126 138 138 136 135 131 126 128 134 135 140 151 154 156 157 144 152 153 161 170 170 170 183 182 182 188 212 238 218 169 153 122 144 171 179 180 181 183 185
107 107 112 115 121 129 133 138 149 148 142 151 148 149 169 164 152 159 116 125 150 162 171 172 173 194 203 189 194 206 223 227 152 154 116 113 153 174 181 183 187 193 194
123 123 121 117 116 127 128 134 149 147 142 154 138 156 159 140 147 129 122 142 154 169 179 183 207 215 226 188 178 203 212 196 192 162 119 135 168 184 191 193 194 200 201
133 128 126 122 130 131 125 132 125 128 136 148 141 158 139 159 157 157 153 161 167 182 186 175 206 218 212 189 208 191 190 204 177 138 118 142 179 196 199 200 202 205 204
141 136 129 128 121 108 98 121 136 136 143 139 137 165 139 148 150 129 169 146 169 161 166 214 215 197 237 206 206 192 191 201 151 118 123 149 183 202 207 212 212 213 208
147 147 134 134 124 122 119 156 106 119 138 130 129 134 151 154 154 148 138 169 177 160 185 196 211 200 241 208 204 190 200 181 175 175 135 156 180 198 207 210 210 213 209
155 149 145 149 133 136 139 156 149 137 136 126 129 127 188 155 151 193 175 183 200 206 161 223 228 238 243 262 225 185 219 194 166 186 165 162 176 191 204 212 213 212 207
160 152 154 158 145 148 159 180 164 173 135 134 127 137 182 186 169 219 184 198 206 224 164 205 208 228 227 217 205 213 209 198 174 180 193 189 173 181 192 203 209 209 210
164 154 161 167 157 156 151 167 160 139 139 147 148 144 172 192 215 248 235 215 254 236 202 193 226 226 253 254 201 241 220 168 181 193 198 199 205 180 175 186 200 207 214
167 160 164 169 169 161 151 154 162 141 161 187 169 169 159 208 231 249 289 25 252 243 239 251 144 255 236 255 240 210 228 200 197 185 187 206 194 205 187 164 185 200 210
160 163 167 168 166 168 163 161 162 156 172 164 119 154 232 220 223 259 203 232 269 258 266 282 248 245 255 260 279 328 263 225 214 171 212 187 189 201 201 187 185 189 198
161 164 170 168 161 178 176 187 182 176 177 176 182 177 226 241 215 235 245 190 263 261 274 261 251 205 222 220 239 220 186 194 189 192 211 209 187 198 198 202 221 218 185
168 172 172 175 171 181 165 184 201 200 203 170 199 188 229 219 228 207 215 232 246 258 250 255 252 265 245 225 276 271 228 183 192 196 202 201 212 212 208 198 193 212 257
175 177 175 175 175 184 177 185 190 188 210 179 190 200 204 212 211 243 221 246 249 255 243 242 239 243 255 240 260 281 285 291 175 185 200 200 222 238 232 211 207 201 225
178 174 176 175 178 179 195 205 219 220 212 192 220 194 155 168 238 216 236 245 257 258 242 248 229 257 258 258 224 257 295 327 285 230 204 178 198 233 261 263 229 203 218
177 177 173 173 178 184 195 197 227 234 225 217 211 146 210 164 221 241 232 260 268 273 282 290 276 266 255 270 270 246 242 234 254 264 259 246 220 226 244 263 264 241 223
175 179 175 174 180 184 189 196 215 227 236 250 241 211 210 190 206 218 223 247 258 278 270 265 270 253 270 280 279 266 252 258 256 253 248 240 240 222 223 243 253 236 230